Logan, UT

5:01 PM MDT on July 27, 2017 (GMT -0600)
Logan-Cache

Weather History for KLGU - January, 2014

Change the Weather History Date:

Tuesday, January 21, 2014

  Actual Average Record
Temperature  
Mean Temperature 12 °F -  
Max Temperature 23 °F 31 °F 60 °F (1967)
Min Temperature 0 °F 13 °F -14 °F (1987)
Degree Days  
Heating Degree Days 54    
Moisture  
Dew Point 5 °F    
Average Humidity 81    
Maximum Humidity 88    
Minimum Humidity 71    
Precipitation  
Precipitation 0.00 in - - ()
Sea Level Pressure  
Sea Level Pressure 30.58 in    
Wind  
Wind Speed 1 mph (NW)    
Max Wind Speed 6 mph    
Max Gust Speed -    
Visibility 3 miles    
Events Fog    
Averages and records for this station are not official NWS values.
T = Trace of Precipitation, MM = Missing Value Source: NWS Daily Summary

Daily Weather History Graph

Daily Weather History Graph

Search for Another Location

Airport or City:

Trip Planner

Search our weather history database for the weather conditions in past years. The results will help you decide how hot, cold, wet, or windy it might be!

Date:

Astronomy

Jan. 21, 2014 Rise Set
Actual Time 7:48 AM MST 5:29 PM MST
Civil Twilight 7:18 AM MST 5:59 PM MST
Nautical Twilight 6:44 AM MST 6:33 PM MST
Astronomical Twilight 6:11 AM MST 7:06 PM MST
Moon 11:11 PM MST (1/21) 10:15 AM MST (1/21)
Length of Visible Light 10h 40m
Length of Day
9h 40m
Waning Gibbous, 74% of the Moon is Illuminated
Jan 21
Waning Gibbous
Jan 23
Last Quarter
Jan 30
New
Feb 6
First Quarter
Feb 14
Full

Hourly Weather History & Observations

Time (MST) Temp. Windchill Dew Point Humidity Pressure Visibility Wind Dir Wind Speed Gust Speed Precip Events Conditions
12:03 AM 10.0 °F - 6.1 °F 84% 30.54 in 2.0 mi Calm Calm - N/A   Clear
12:10 AM 10.0 °F - 6.1 °F 84% 30.54 in 3.0 mi Calm Calm - N/A   Clear
12:17 AM 10.0 °F - 6.1 °F 84% 30.54 in 2.5 mi Calm Calm - N/A   Clear
12:35 AM 8.1 °F - 3.9 °F 83% 30.53 in 3.0 mi Calm Calm - N/A   Clear
12:51 AM 10.0 °F - 7.0 °F 87% 30.69 in 3.0 mi Calm Calm - N/A   Clear
1:51 AM 1.9 °F - -0.9 °F 88% 30.70 in 3.0 mi Calm Calm - N/A   Clear
1:56 AM -0.0 °F -7.9 °F -2.9 °F 88% 30.52 in 3.0 mi NW 3.5 mph - N/A   Scattered Clouds
2:04 AM -0.9 °F -8.9 °F -4.0 °F 87% 30.53 in 2.5 mi North 3.5 mph - N/A   Mostly Cloudy
2:07 AM -0.0 °F -7.9 °F -4.0 °F 83% 30.53 in 0.8 mi North 3.5 mph - N/A   Mist
2:34 AM 5.0 °F -5.6 °F 1.9 °F 87% 30.54 in 2.0 mi NE 5.8 mph - N/A   Overcast
2:39 AM 5.0 °F -2.1 °F 1.9 °F 87% 30.54 in 4.0 mi NE 3.5 mph - N/A   Overcast
2:51 AM 3.0 °F - -0.9 °F 84% 30.70 in 4.0 mi Calm Calm - N/A   Mostly Cloudy
3:00 AM 8.1 °F - 3.9 °F 83% 30.53 in 1.5 mi Calm Calm - N/A   Overcast
3:11 AM 3.9 °F -5.3 °F -0.0 °F 84% 30.53 in 3.0 mi SW 4.6 mph - N/A   Mostly Cloudy
3:21 AM -0.0 °F - -2.9 °F 88% 30.54 in 1.0 mi Calm Calm - N/A   Mist
3:26 AM 1.0 °F - -2.9 °F 83% 30.53 in 0.2 mi Calm Calm - N/A Fog Light Freezing Fog
3:51 AM 1.9 °F -7.6 °F -2.9 °F 80% 30.70 in 0.2 mi West 4.6 mph - N/A   Haze
4:51 AM 6.1 °F - 1.0 °F 80% 30.67 in 0.2 mi Calm Calm - N/A   Haze
5:27 AM 6.1 °F - -0.0 °F 76% 30.51 in 1.5 mi Calm Calm - N/A   Haze
5:36 AM 3.9 °F -5.3 °F -2.9 °F 73% 30.51 in 0.2 mi West 4.6 mph - N/A   Haze
5:51 AM 1.9 °F -7.6 °F -2.0 °F 83% 30.71 in 0.2 mi NNW 4.6 mph - N/A Fog Light Freezing Fog
6:51 AM 7.0 °F - 1.9 °F 80% 30.71 in 0.2 mi Calm Calm - N/A   Haze
7:51 AM 8.1 °F - 3.0 °F 80% 30.71 in 0.2 mi Calm Calm - N/A   Haze
8:51 AM 10.0 °F - 3.9 °F 76% 30.71 in 0.2 mi Calm Calm - N/A   Haze
9:51 AM 9.0 °F - 5.0 °F 84% 30.72 in 0.2 mi Calm Calm - N/A Fog Light Freezing Fog
10:51 AM 16.0 °F - 9.0 °F 74% 30.71 in 0.2 mi Calm Calm - 0.00 in   Haze
11:02 AM 17.1 °F - 9.0 °F 71% 30.52 in 1.5 mi Calm Calm - N/A   Haze
11:07 AM 18.0 °F - 10.9 °F 74% 30.51 in 2.0 mi Calm Calm - N/A   Haze
11:48 AM 19.4 °F - 14.0 °F 80% 30.49 in 3.0 mi Calm Calm - N/A   Haze
11:51 AM 19.0 °F - 14.0 °F 81% 30.66 in 3.0 mi Calm Calm - N/A   Haze
12:51 PM 21.0 °F 16.2 °F 14.0 °F 74% 30.61 in 5.0 mi NNW 3.5 mph - N/A   Haze
1:51 PM 23.0 °F - 15.1 °F 72% 30.60 in 5.0 mi Calm Calm - N/A   Haze
2:51 PM 23.0 °F - 16.0 °F 74% 30.57 in 6.0 mi Calm Calm - N/A   Haze
3:51 PM 23.0 °F - 16.0 °F 74% 30.56 in 6.0 mi Calm Calm - N/A   Haze
4:51 PM 23.0 °F - 15.1 °F 72% 30.53 in 6.0 mi Calm Calm - N/A   Haze
5:51 PM 21.0 °F 14.6 °F 14.0 °F 74% 30.55 in 7.0 mi NNW 4.6 mph - N/A   Clear
6:51 PM 10.0 °F 3.6 °F 6.1 °F 84% 30.57 in 6.0 mi West 3.5 mph - N/A   Clear
7:51 PM 15.1 °F 9.4 °F 10.0 °F 80% 30.54 in 6.0 mi SSW 3.5 mph - N/A   Haze
8:51 PM 12.9 °F - 9.0 °F 84% 30.53 in 4.0 mi Calm Calm - N/A   Clear
9:51 PM 10.0 °F - 5.0 °F 80% 30.53 in 4.0 mi Calm Calm - N/A   Haze
10:51 PM 14.0 °F - 9.0 °F 80% 30.50 in 5.0 mi Calm Calm - N/A   Haze
11:51 PM 7.0 °F - 3.0 °F 84% 30.51 in 5.0 mi Calm Calm - N/A   Clear